When you browse on this site, cookies collect data to enhance your experience and personalize the content and advertising you see.
Visit our Privacy Policy to learn more. By continuing to use the site, you agree to this use of cookies and data.
  • In Österreich
  • Länderverzeichnis
  • Für 7 Tage
  • Wassertemperatur
  • Satellitenkarten
  • Wetterkarte
  • News
  • Widgets
  • user-avatar
    Anmelden

    Stündliche Wetter Kitzbühel

    Heute, 17 Juli, Mittwoch

    Zeit Temperatur Niederschläge Wind Luftdruck Luftfeuchtigkeit
    00:00 +12°C° 0 mm 1 m/S 677 mmHg 95%
    01:00 +12°C° 0 mm 1 m/S 677 mmHg 96%
    02:00 +12°C° 0 mm 1 m/S 677 mmHg 96%
    03:00 +12°C° 0 mm 1 m/S 677 mmHg 96%
    04:00 +11°C° 0 mm 1 m/S 676 mmHg 96%
    05:00 +13°C° 0 mm 1 m/S 677 mmHg 91%
    06:00 +15°C° 0 mm 1 m/S 677 mmHg 86%
    07:00 +16°C° 0 mm 1 m/S 677 mmHg 81%
    08:00 +20°C° 0 mm 1 m/S 677 mmHg 70%
    09:00 +22°C° 0 mm 1 m/S 678 mmHg 60%
    10:00 +24°C° 0 mm 1 m/S 678 mmHg 49%
    11:00 +24°C° 0 mm 1 m/S 678 mmHg 47%
    12:00 +25°C° 0 mm 2 m/S 677 mmHg 45%
    13:00 +25°C° 0 mm 2 m/S 677 mmHg 44%
    14:00 +24°C° 0.6 mm 2 m/S 677 mmHg 54%
    15:00 +23°C° 0.6 mm 2 m/S 677 mmHg 65%
    16:00 +21°C° 0.6 mm 2 m/S 676 mmHg 76%
    17:00 +21°C° 1.1 mm 1 m/S 676 mmHg 81%
    18:00 +19°C° 1.1 mm 1 m/S 676 mmHg 86%
    19:00 +18°C° 1.1 mm 1 m/S 675 mmHg 92%
    20:00 +16°C° 0.4 mm 1 m/S 675 mmHg 92%
    21:00 +15°C° 0.4 mm 1 m/S 675 mmHg 93%
    22:00 +13°C° 0.4 mm 1 m/S 675 mmHg 94%
    23:00 +13°C° 0 mm 1 m/S 675 mmHg 94%

    Morgen, 18 Juli, Donnerstag

    Zeit Temperatur Niederschläge Wind Luftdruck Luftfeuchtigkeit
    00:00 +12°C° 0 mm 1 m/S 675 mmHg 95%
    01:00 +12°C° 0 mm 1 m/S 675 mmHg 95%
    02:00 +12°C° 0 mm 1 m/S 675 mmHg 94%
    03:00 +11°C° 0 mm 1 m/S 675 mmHg 94%
    04:00 +11°C° 0 mm 1 m/S 675 mmHg 94%
    05:00 +13°C° 0 mm 1 m/S 675 mmHg 92%
    06:00 +14°C° 0 mm 1 m/S 675 mmHg 89%
    07:00 +14°C° 0 mm 0 m/S 676 mmHg 87%
    08:00 +16°C° 0.1 mm 0 m/S 676 mmHg 78%
    09:00 +20°C° 0.1 mm 1 m/S 676 mmHg 68%
    10:00 +22°C° 0.1 mm 1 m/S 677 mmHg 58%
    11:00 +23°C° 0 mm 1 m/S 677 mmHg 54%
    12:00 +23°C° 0 mm 2 m/S 677 mmHg 50%
    13:00 +24°C° 0 mm 2 m/S 677 mmHg 46%
    14:00 +23°C° 0.2 mm 2 m/S 677 mmHg 49%
    15:00 +23°C° 0.2 mm 2 m/S 677 mmHg 52%
    16:00 +23°C° 0.2 mm 2 m/S 677 mmHg 55%
    17:00 +21°C° 0.3 mm 1 m/S 677 mmHg 66%
    18:00 +20°C° 0.3 mm 1 m/S 676 mmHg 76%
    19:00 +16°C° 0.3 mm 0 m/S 676 mmHg 86%
    20:00 +16°C° 0.2 mm 1 m/S 676 mmHg 88%
    21:00 +15°C° 0.2 mm 1 m/S 677 mmHg 90%
    22:00 +13°C° 0.2 mm 1 m/S 677 mmHg 92%
    23:00 +13°C° 0 mm 1 m/S 677 mmHg 92%

    übermorgen, 19 Juli, Freitag

    Zeit Temperatur Niederschläge Wind Luftdruck Luftfeuchtigkeit
    00:00 +13°C° 0 mm 1 m/S 677 mmHg 92%
    01:00 +12°C° 0 mm 1 m/S 676 mmHg 93%
    02:00 +12°C° 0 mm 1 m/S 677 mmHg 92%
    03:00 +12°C° 0 mm 1 m/S 677 mmHg 92%
    04:00 +12°C° 0 mm 1 m/S 677 mmHg 92%
    05:00 +14°C° 0 mm 1 m/S 677 mmHg 90%
    06:00 +15°C° 0 mm 1 m/S 678 mmHg 87%
    07:00 +15°C° 0 mm 0 m/S 678 mmHg 85%
    08:00 +19°C° 0.1 mm 1 m/S 678 mmHg 76%
    09:00 +21°C° 0.1 mm 1 m/S 679 mmHg 67%
    10:00 +23°C° 0.1 mm 1 m/S 679 mmHg 58%
    11:00 +24°C° 0.2 mm 1 m/S 679 mmHg 55%
    12:00 +25°C° 0.2 mm 1 m/S 679 mmHg 52%
    13:00 +25°C° 0.2 mm 1 m/S 679 mmHg 48%
    14:00 +24°C° 0.5 mm 1 m/S 679 mmHg 58%
    15:00 +23°C° 0.5 mm 1 m/S 678 mmHg 67%
    16:00 +22°C° 0.5 mm 1 m/S 678 mmHg 77%
    17:00 +21°C° 0.5 mm 1 m/S 678 mmHg 82%
    18:00 +20°C° 0.5 mm 1 m/S 678 mmHg 87%
    19:00 +17°C° 0.5 mm 0 m/S 678 mmHg 92%
    20:00 +16°C° 0.2 mm 0 m/S 678 mmHg 93%
    21:00 +16°C° 0.2 mm 1 m/S 678 mmHg 93%
    22:00 +15°C° 0.2 mm 1 m/S 678 mmHg 94%
    23:00 +14°C° 0 mm 1 m/S 678 mmHg 94%

    20 Juli, Samstag

    Zeit Temperatur Niederschläge Wind Luftdruck Luftfeuchtigkeit
    00:00 +14°C° 0 mm 1 m/S 678 mmHg 94%
    01:00 +14°C° 0 mm 1 m/S 678 mmHg 93%
    02:00 +14°C° 0 mm 1 m/S 678 mmHg 93%
    03:00 +13°C° 0 mm 1 m/S 678 mmHg 93%
    04:00 +13°C° 0 mm 1 m/S 678 mmHg 93%
    05:00 +15°C° 0 mm 1 m/S 678 mmHg 91%
    06:00 +16°C° 0 mm 1 m/S 678 mmHg 89%
    07:00 +19°C° 0 mm 1 m/S 679 mmHg 87%
    08:00 +21°C° 0 mm 1 m/S 679 mmHg 75%
    09:00 +24°C° 0 mm 1 m/S 680 mmHg 64%
    10:00 +27°C° 0 mm 1 m/S 680 mmHg 52%
    11:00 +27°C° 0.4 mm 1 m/S 680 mmHg 53%
    12:00 +27°C° 0.4 mm 1 m/S 680 mmHg 54%
    13:00 +27°C° 0.4 mm 1 m/S 680 mmHg 55%
    14:00 +26°C° 0.7 mm 1 m/S 680 mmHg 61%
    15:00 +25°C° 0.7 mm 1 m/S 680 mmHg 66%
    16:00 +24°C° 0.7 mm 1 m/S 679 mmHg 71%
    17:00 +23°C° 1.6 mm 1 m/S 679 mmHg 79%
    18:00 +21°C° 1.6 mm 1 m/S 679 mmHg 86%
    19:00 +19°C° 1.6 mm 1 m/S 679 mmHg 93%
    20:00 +17°C° 3.3 mm 2 m/S 680 mmHg 94%
    21:00 +16°C° 3.3 mm 2 m/S 680 mmHg 95%
    22:00 +15°C° 3.3 mm 2 m/S 680 mmHg 96%
    23:00 +14°C° 0.5 mm 2 m/S 680 mmHg 95%

    21 Juli, Sonntag

    Zeit Temperatur Niederschläge Wind Luftdruck Luftfeuchtigkeit
    00:00 +14°C° 0.5 mm 2 m/S 680 mmHg 93%
    01:00 +13°C° 0.5 mm 2 m/S 680 mmHg 92%
    02:00 +13°C° 0 mm 2 m/S 680 mmHg 90%
    03:00 +13°C° 0 mm 2 m/S 680 mmHg 89%
    04:00 +13°C° 0 mm 1 m/S 679 mmHg 87%
    05:00 +15°C° 0 mm 1 m/S 680 mmHg 84%
    06:00 +18°C° 0 mm 1 m/S 681 mmHg 82%
    07:00 +19°C° 0 mm 1 m/S 681 mmHg 79%
    08:00 +21°C° 0 mm 1 m/S 682 mmHg 70%
    09:00 +23°C° 0 mm 1 m/S 682 mmHg 62%
    10:00 +25°C° 0 mm 1 m/S 683 mmHg 53%
    11:00 +25°C° 0.1 mm 1 m/S 683 mmHg 55%
    12:00 +25°C° 0.1 mm 1 m/S 682 mmHg 57%
    13:00 +25°C° 0.1 mm 2 m/S 682 mmHg 59%
    14:00 +25°C° 0.4 mm 2 m/S 682 mmHg 62%
    15:00 +25°C° 0.4 mm 2 m/S 682 mmHg 64%
    16:00 +24°C° 0.4 mm 2 m/S 682 mmHg 66%
    17:00 +23°C° 0.5 mm 1 m/S 682 mmHg 74%
    18:00 +22°C° 0.5 mm 1 m/S 682 mmHg 82%
    19:00 +19°C° 0.5 mm 0 m/S 682 mmHg 90%
    20:00 +17°C° 0.3 mm 0 m/S 682 mmHg 92%
    21:00 +16°C° 0.3 mm 0 m/S 682 mmHg 93%
    22:00 +15°C° 0.3 mm 0 m/S 682 mmHg 94%
    23:00 +14°C° 0.1 mm 0 m/S 682 mmHg 94%

    22 Juli, Montag

    Zeit Temperatur Niederschläge Wind Luftdruck Luftfeuchtigkeit
    00:00 +14°C° 0.1 mm 0 m/S 682 mmHg 94%
    01:00 +15°C° 0.1 mm 1 m/S 682 mmHg 94%
    02:00 +14°C° 0 mm 1 m/S 682 mmHg 94%
    03:00 +14°C° 0 mm 1 m/S 681 mmHg 94%
    04:00 +14°C° 0 mm 1 m/S 681 mmHg 94%
    05:00 +14°C° 0 mm 0 m/S 682 mmHg 92%
    06:00 +16°C° 0 mm 0 m/S 682 mmHg 91%
    07:00 +17°C° 0 mm 0 m/S 682 mmHg 89%
    08:00 +19°C° 0.2 mm 0 m/S 683 mmHg 82%
    09:00 +22°C° 0.2 mm 1 m/S 683 mmHg 74%
    10:00 +24°C° 0.2 mm 1 m/S 683 mmHg 67%
    11:00 +25°C° 0.4 mm 1 m/S 683 mmHg 65%
    12:00 +25°C° 0.4 mm 2 m/S 683 mmHg 62%
    13:00 +26°C° 0.4 mm 2 m/S 683 mmHg 60%
    14:00 +26°C° 0.1 mm 2 m/S 682 mmHg 58%
    15:00 +26°C° 0.1 mm 2 m/S 682 mmHg 57%
    16:00 +26°C° 0.1 mm 2 m/S 682 mmHg 55%
    17:00 +25°C° 0.1 mm 2 m/S 682 mmHg 65%
    18:00 +23°C° 0.1 mm 1 m/S 681 mmHg 76%
    19:00 +21°C° 0.1 mm 1 m/S 681 mmHg 86%
    20:00 +20°C° 0 mm 1 m/S 681 mmHg 89%
    21:00 +19°C° 0 mm 1 m/S 681 mmHg 91%
    22:00 +16°C° 0 mm 1 m/S 681 mmHg 94%
    23:00 +16°C° 0 mm 1 m/S 681 mmHg 94%
    Mehr zeigen